This is the latest recevied weather packets stored in our database for station/object OE6ACM-14. If no packets are shown the sender has not sent any weather packets the latest 10 day(s).
| Time | Temp. | Humidity | Pressure | Rain* | Wind** | Luminosity | Snow |
|---|---|---|---|---|---|---|---|
| 1777592953 | -0.56° C | 55% | 938.3 hPa | - | - | - | - |
| 1777592653 | 0° C | 54% | 938.5 hPa | - | - | - | - |
| 1777592353 | -0.56° C | 55% | 938.4 hPa | - | - | - | - |
| 1777592053 | -1.11° C | 56% | 938.5 hPa | - | - | - | - |
| 1777591753 | -0.56° C | 54% | 938.4 hPa | - | - | - | - |
| 1777591453 | 0° C | 54% | 938.4 hPa | - | - | - | - |
| 1777591153 | 0° C | 55% | 938.4 hPa | - | - | - | - |
| 1777590853 | 0° C | 54% | 938.4 hPa | - | - | - | - |
| 1777590553 | 0° C | 54% | 938.3 hPa | - | - | - | - |
| 1777590253 | 0° C | 53% | 938.2 hPa | - | - | - | - |
| 1777589953 | 0.56° C | 52% | 938.2 hPa | - | - | - | - |
| 1777589653 | 0.56° C | 52% | 938.2 hPa | - | - | - | - |
| 1777589353 | 0° C | 52% | 938.2 hPa | - | - | - | - |
| 1777589053 | 0.56° C | 53% | 938.3 hPa | - | - | - | - |
| 1777588753 | 0.56° C | 53% | 938.3 hPa | - | - | - | - |
| 1777588453 | 0.56° C | 53% | 938.3 hPa | - | - | - | - |
| 1777588153 | 0.56° C | 53% | 938.3 hPa | - | - | - | - |
| 1777587853 | 0° C | 54% | 938.2 hPa | - | - | - | - |
| 1777587553 | 0.56° C | 54% | 938.2 hPa | - | - | - | - |
| 1777587253 | 0.56° C | 53% | 938.2 hPa | - | - | - | - |
| 1777586953 | 1.11° C | 50% | 938.2 hPa | - | - | - | - |
| 1777586653 | 1.67° C | 50% | 938.2 hPa | - | - | - | - |
| 1777586353 | 1.11° C | 49% | 938.2 hPa | - | - | - | - |
| 1777586053 | 1.11° C | 50% | 938.2 hPa | - | - | - | - |
| 1777585753 | 1.11° C | 50% | 938.2 hPa | - | - | - | - |
* Rain since midnight (hover to see other rain measurements)
** Current wind speed in m/s (hover to see current wind gust speed)